Change the Weather History Date:

Saturday, October 27, 2012

  Actual Average Record
Temperature  
Mean Temperature 81 °F -  
Max Temperature 91 °F 83 °F 93 °F (2013)
Min Temperature 71 °F 67 °F 64 °F (1999)
Cooling Degree Days 16    
Growing Degree Days 31 (Base 50)    
Moisture  
Dew Point 67 °F    
Average Humidity 68    
Maximum Humidity 90    
Minimum Humidity 48    
Precipitation  
Precipitation 0.00 in - - ()
Sea Level Pressure  
Sea Level Pressure 29.91 in    
Wind  
Wind Speed 2 mph ()    
Max Wind Speed 12 mph    
Max Gust Speed -    
Visibility 3.7 miles    
Events Fog    
Averages and records for this station are not official NWS values.
T = Trace of Precipitation, MM = Missing Value Source: Averaged Metar Reports

Daily Weather History Graph

Daily Weather History Graph

Search for Another Location

Airport or City:

Trip Planner

Search our weather history database for the weather conditions in past years. The results will help you decide how hot, cold, wet, or windy it might be!

Date:

Astronomy

Oct. 27, 2012 Rise Set
Actual Time 7:53 AM CDT 7:22 PM CDT
Civil Twilight 7:30 AM CDT 7:45 PM CDT
Nautical Twilight 7:04 AM CDT 8:11 PM CDT
Astronomical Twilight 6:38 AM CDT 8:36 PM CDT
Moon 6:02 PM CDT (10/27) 6:01 AM CDT (10/27)
Length of Visible Light 12h 14m
Length of Day
11h 29m
Waxing Gibbous, 96% of the Moon is Illuminated
Oct 27
Waxing Gibbous
Oct 29
Full
Nov 6
Last Quarter
Nov 13
New
Nov 20
First Quarter

Hourly Weather History & Observations

Time (CDT) Temp. Heat Index Dew Point Humidity Pressure Visibility Wind Dir Wind Speed Gust Speed Precip Events Conditions
12:49 AM 77 °F - 75 °F 90% 29.83 in 2 mi East 2.2 mph - -   Haze
5:58 AM 71.6 °F - 66.2 °F 83% 29.91 in 6.0 mi Calm Calm - N/A   Mostly Cloudy
6:18 AM 71.6 °F - 66.2 °F 83% 29.91 in 3.0 mi Calm Calm - N/A Fog Patches of Fog
6:47 AM 71.6 °F - 66.2 °F 83% 29.91 in 3.0 mi Calm Calm - N/A Fog Patches of Fog
7:52 AM 71.6 °F - 66.2 °F 83% 29.93 in 3.0 mi North 8.1 mph - N/A Fog Patches of Fog
8:44 AM 71.6 °F - 66.2 °F 83% 29.95 in 3.0 mi Calm Calm - N/A Fog Patches of Fog
9:49 AM 76 °F - 72 °F 82% 29.89 in 2 mi SE 2.2 mph - -   Haze
10:02 AM 77.0 °F - 64.4 °F 65% 29.98 in 3.0 mi Calm Calm - N/A   Haze
10:42 AM 77.0 °F - 64.4 °F 65% 29.99 in 3.0 mi Calm Calm - N/A   Haze
11:42 AM 77.0 °F - 64.4 °F 65% 29.99 in 3.0 mi Calm Calm - N/A   Haze
12:40 PM 88 °F - 72 °F 51% 29.87 in 2 mi SW 2.2 mph - -   Haze
12:50 PM 84.2 °F 85.0 °F 62.6 °F 48% 29.96 in 3.0 mi Calm Calm - N/A   Haze
1:40 PM 82.4 °F 84.6 °F 66.2 °F 58% 29.91 in 3.0 mi Calm Calm - N/A   Haze
2:40 PM 84.2 °F 85.6 °F 64.4 °F 51% 29.87 in 3.0 mi Calm Calm - N/A   Haze
3:40 PM 84.2 °F 86.6 °F 66.2 °F 55% 29.87 in 5.0 mi Calm Calm - N/A   Mostly Cloudy
4:48 PM 84.2 °F 86.6 °F 66.2 °F 55% 29.85 in 6.0 mi SSW 11.5 mph - N/A   Mostly Cloudy
5:40 PM 80.6 °F 82.7 °F 66.2 °F 61% 29.87 in 6.0 mi Calm Calm - N/A   Mostly Cloudy
6:40 PM 77.0 °F - 66.2 °F 69% 29.90 in 5.0 mi SSW 11.5 mph - N/A   Mostly Cloudy
6:50 PM 83 °F - 71 °F 60% 29.80 in 5 mi SE 8.9 mph - -   Haze
7:40 PM 75.2 °F - 66.2 °F 73% 29.94 in 5.0 mi SSW 11.5 mph - N/A   Mostly Cloudy